Location: Bakhuizen
(52.8696°N, 5.4575°E)
Time: 05:40:13
(UTC+00:00)

Nimbus 7 Rocket - Pass Details

Date: 05 October 2021
Orbit: 922 x 965 km, 99.4° (Epoch: 17 October)

Event Time Altitude Azimuth Distance (km) Brightness Sun altitude
Rises 23:25:22 0° 17° (NNE) 3,594 8.2 -42.2°
Reaches altitude 10° 23:27:49 10° 20° (NNE) 2,651 7.3 -42.2°
Enters shadow 23:29:46 22° 24° (NNE) 1,930 6.4 -42.2°
